COSMOS 2093

Satellite information

Favourite Embed

Satellite Type and Status

PAYLOADIN ORBIT

Key statistics

Satellite COSMOS 2093 at a glance.

Uptime

12754

Days in orbit

Revolutions

≈ 12.6

Per day

Orbit

LEO

Low Earth Orbit

Inclination

82.6

Latest

Satellite identification and parameters

Extended collection of information and parameters for COSMOS 2093.

Object identification

Identified? True

Debris? False

Object name: COSMOS 2093

International designator: 1990-070D

Object number (NORAD): 20738

Object ID (CCSDS): 20738

Country: COMMONWEALTH OF INDEPENDENT STATES (CIS)

Current information (Y/N): Y

RCS size: LARGE

Orbital parameters

Period: 113.917 minutes

Inclination: 82.5751 deg

SMA: 7784.272 km

Apoapsis: 1413.14 km

Periapsis: 1399.135 km

RAAN: 160.7877 deg

Eccentricy: 0.0008996

Argument of periapsis: 159.2201 deg

Mean anomaly: 228.4599 deg

Mean motion: 12.64083375 rev/day

Mean motion (dot): 0.00000015 rev/day2

B* drag term: 0.000024651 1/REarth

Two-line elements (TLE)

Creation date: July 9, 2025, 2:22 a.m.

Reference frame: TEME

Reference center: EARTH

Epoch: July 8, 2025, 9:16 p.m. UTC

TLE line 0: 0 COSMOS 2093

TLE line 1: 1 20738U 90070D 25189.88624447 .00000015 00000-0 24651-4 0 9992

TLE line 2: 2 20738 82.5751 160.7877 0008996 159.2201 228.4599 12.64083375611004

Live tracking on map

Real-time ground track for satellite COSMOS 2093.

In-orbit conjunctions

There are no conjunctions computed for COSMOS 2093, at the moment. Check back to stay up to date, as we update our databases every day.

Go to all conjunctions

Associated space launch

Second generation store-dump military communications satellite

COSMOS 2093 was lifted into orbit during the mission ‘Tsiklon-3 | Strela-3 49 to 54’, on board a Tsiklon-3 space rocket.

The launch took place on Aug. 8, 1990, 4:15 a.m. from 32/2.

For more information about the launch, click the button.

Launch to space Tsiklon-3 | Strela-3 49 to 54
Tsiklon-3 | Strela-3 49 to 54

Agency: N/A

Status: Launch Successful

Launch date: Aug. 8, 1990, 4:15 a.m. UTC

Rocket: Tsiklon-3

Launch pad: 32/2

Location: Plesetsk Cosmodrome, Russian Federation

...

Latest news about this satellite

There are no fresh news available about this satellite. Check back as we update our databases every day.


Newsletter sign-up

Weekly statistics, charts and insights to help you stay on top of the space industry.